Location: Unspecified
(0.0000°N, 0.0000°E)
Time: 07:16:59
(UTC+00:00)

Vanguard 2 - Pass Details

Date: 22 September 2019
Orbit: 554 x 2937 km, 32.9° (Epoch: 14 October)

Event Time Altitude Azimuth Distance (km) Brightness Sun altitude
Rises 23:08:01 0° 240° (WSW) 6,372 12.3 -78.8°
Reaches altitude 10° 23:11:59 10° 242° (WSW) 5,534 11.9 -79.8°
Enters shadow 23:12:42 12° 242° (WSW) 5,386 11.8 -80.0°
Maximum altitude 23:29:38 72° 323° (NW) 2,999 - -84.2°
Drops below altitude 10° 23:45:27 10° 46° (NE) 5,015 - -88.2°
Sets 23:48:52 0° 49° (NE) 5,771 - -89.0°
